Voltar ao catálogo

STARLINK-37138

AtivoComunicaçõesSSO
NORAD 68308·PAYLOAD·🇺🇸 United States

Lançado Mar 20, 2026 de Vandenberg Space Force Base

Loading…

Próximas Passagens (próximas 24 horas)

TLE

AtualizadoSource: CelesTrak SupGP

Época: Sep 14, 2026, 22:43 UTC

1 68308C 26057Q   26257.94701389 -.00040795  00000+0 -12664-2 0  2572
2 68308  97.2856  23.4643 0001452  91.3900 334.5665 15.33460582    10

Acompanhe STARLINK-37138 em tempo real com AllMySat

Download on the App Store